Wetterstation Vordersexau
Wetterdaten: Mrz 2017
Datum Temp. A. Feuchte A. Luftdruck Regen Wind Richtung Taupunkt Windchill Windben
01.03.2017 7,1 C 77 % 1005,7 hPa 0,0 l/m 23,3 km/h S-SW 3,3 C -0,7 C 13,0 km/h
02.03.2017 9,2 C 69 % 1012,4 hPa 3,1 l/m 15,3 km/h W 3,3 C 4,6 C 8,5 km/h
03.03.2017 6,8 C 71 % 1007,3 hPa 0,0 l/m 0,9 km/h O-NO 1,6 C 6,4 C 0,5 km/h
04.03.2017 6,3 C 78 % 994,8 hPa 1,0 l/m 7,6 km/h O-NO 2,7 C 3,8 C 4,3 km/h
05.03.2017 7,8 C 74 % 1002,5 hPa 1,6 l/m 16,1 km/h W-SW 3,3 C 2,5 C 8,9 km/h
06.03.2017 6,2 C 81 % 1002,8 hPa 6,7 l/m 8,5 km/h S-SW 3,2 C 3,4 C 4,7 km/h
07.03.2017 4,8 C 84 % 1014,3 hPa 2,6 l/m 2,9 km/h O-SO 2,4 C 4,0 C 1,6 km/h
08.03.2017 6,3 C 79 % 1019,5 hPa 1,0 l/m 8,9 km/h O-SO 2,8 C 3,7 C 4,9 km/h
09.03.2017 10,1 C 83 % 1019,6 hPa 7,8 l/m 12,0 km/h SW 7,3 C 6,8 C 6,7 km/h
10.03.2017 10,2 C 66 % 1023,5 hPa 0,5 l/m 0,5 km/h O-SO 3,4 C 10,2 C 0,3 km/h
11.03.2017 8,4 C 68 % 1018,0 hPa 0,0 l/m 0,0 km/h W 2,0 C 8,4 C 0,0 km/h
12.03.2017 9,3 C 68 % 1011,8 hPa 0,0 l/m 0,3 km/h W-NW 3,1 C 9,3 C 0,2 km/h
13.03.2017 8,8 C 64 % 1020,7 hPa 0,0 l/m 0,3 km/h O-NO 1,7 C 8,8 C 0,2 km/h
14.03.2017 9,9 C 63 % 1029,0 hPa 0,0 l/m 0,2 km/h O 2,0 C 9,9 C 0,1 km/h
15.03.2017 10,5 C 69 % 1027,9 hPa 0,0 l/m 1,2 km/h O-SO 4,6 C 10,5 C 0,7 km/h
16.03.2017 9,5 C 71 % 1022,4 hPa 0,0 l/m 0,2 km/h NO 3,8 C 9,5 C 0,1 km/h
17.03.2017 12,1 C 68 % 1014,8 hPa 0,0 l/m 7,7 km/h O-SO 5,8 C 11,0 C 4,3 km/h
18.03.2017 9,1 C 80 % 1013,1 hPa 0,5 l/m 24,8 km/h SW 5,8 C 1,1 C 13,8 km/h
19.03.2017 12,1 C 79 % 1012,9 hPa 0,0 l/m 15,2 km/h SW 8,5 C 7,8 C 8,5 km/h
20.03.2017 12,7 C 72 % 1011,0 hPa 0,0 l/m 7,3 km/h SW 7,5 C 11,1 C 4,1 km/h
21.03.2017 10,5 C 71 % 1009,8 hPa 5,7 l/m 8,7 km/h W-SW 5,4 C 8,2 C 4,9 km/h
22.03.2017 6,8 C 81 % 1010,6 hPa 4,7 l/m 0,2 km/h N 3,7 C 6,8 C 0,1 km/h
23.03.2017 12,7 C 68 % 1009,8 hPa 0,0 l/m 0,5 km/h NO 6,6 C 12,7 C 0,3 km/h
24.03.2017 10,2 C 76 % 1018,8 hPa 0,0 l/m 0,9 km/h O-SO 6,0 C 10,1 C 0,5 km/h
25.03.2017 12,4 C 61 % 1017,7 hPa 0,0 l/m 0,1 km/h O-SO 3,9 C 12,4 C 0,1 km/h
26.03.2017 10,8 C 62 % 1017,7 hPa 0,0 l/m 0,9 km/h O-SO 3,1 C 10,8 C 0,5 km/h
27.03.2017 12,5 C 56 % 1018,8 hPa 0,0 l/m 1,2 km/h W 3,1 C 12,4 C 0,6 km/h
28.03.2017 13,6 C 62 % 1020,7 hPa 0,0 l/m 4,8 km/h O-SO 5,5 C 12,7 C 2,7 km/h
29.03.2017 15,4 C 61 % 1024,2 hPa 0,0 l/m 0,2 km/h O-SO 6,8 C 15,4 C 0,1 km/h
30.03.2017 15,5 C 62 % 1022,6 hPa 0,0 l/m 0,2 km/h O-SO 7,3 C 15,5 C 0,1 km/h
31.03.2017 15,2 C 60 % 1015,6 hPa 0,0 l/m 1,9 km/h O-SO 6,4 C 15,0 C 1,0 km/h
Min-Datum 11.03.17 14.03.17 04.03.17 11 Tage 01.03.17 - 03.03.17 01.03.17 01.03.17
Min-Zeit 06:57 16:57 14:01 - 19:01 - 07:01 08:01 19:01
Minimum -1,4 C 28 % 988,6 hPa - 0,0 km/h - -3,4 C -9,5 C 0,0 km/h
Max-Datum 30.03.17 04.03.17 14.03.17 09.03.17 01.03.17 - 30.03.17 30.03.17 01.03.17
Max-Zeit 18:57 03:01 10:57 06:57 08:01 - 17:57 18:57 08:01
Maximum 30,8 C 86 % 1030,7 hPa 7,8 l/m 51,2 km/h
S-SW
- 11,9 C 30,8 C 28,4 km/h
S-SW
Durchschnitt 10,1 C 71 % 1015,2 hPa #35,2 l/m 5,6 km/h O-SO 4,4 C 8,5 C 3,1 km/h

Durchschnitt Minimum Temp.3,4 C
Durchschnitt Maximum Temp.19,6 C
www.sexauwetter.de